When you browse on this site, cookies collect data to enhance your experience and personalize the content and advertising you see.
Visit our Privacy Policy to learn more. By continuing to use the site, you agree to this use of cookies and data.
  • In Deutschland
  • Länderverzeichnis
  • Für 7 Tage
  • Wassertemperatur
  • Wetterkarte
  • Widgets
  • user-avatar
    Anmelden

    Stündliche Wetter Mayrhofen

    Heute, 6 Juni, Samstag

    Zeit Temperatur Niederschläge Wind Luftdruck Luftfeuchtigkeit
    00:00 +6°C° 0.1 mm 1 m/S 610 mmHg 94%
    01:00 +6°C° 0 mm 1 m/S 610 mmHg 95%
    02:00 +6°C° 0 mm 1 m/S 610 mmHg 95%
    03:00 +6°C° 0 mm 1 m/S 610 mmHg 95%
    04:00 +5°C° 0 mm 2 m/S 610 mmHg 95%
    05:00 +6°C° 0 mm 2 m/S 610 mmHg 93%
    06:00 +7°C° 0 mm 2 m/S 611 mmHg 91%
    07:00 +9°C° 0 mm 2 m/S 612 mmHg 88%
    08:00 +10°C° 0.1 mm 2 m/S 612 mmHg 82%
    09:00 +12°C° 0.1 mm 2 m/S 613 mmHg 77%
    10:00 +14°C° 0.1 mm 2 m/S 613 mmHg 71%
    11:00 +14°C° 0.5 mm 2 m/S 613 mmHg 74%
    12:00 +13°C° 0.5 mm 2 m/S 613 mmHg 76%
    13:00 +13°C° 0 mm 2 m/S 613 mmHg 76%
    14:00 +13°C° 1 mm 2 m/S 613 mmHg 79%
    15:00 +13°C° 1 mm 2 m/S 613 mmHg 81%
    16:00 +13°C° 1 mm 2 m/S 613 mmHg 84%
    17:00 +12°C° 1.3 mm 2 m/S 613 mmHg 88%
    18:00 +10°C° 1.3 mm 2 m/S 612 mmHg 91%
    19:00 +10°C° 1.3 mm 1 m/S 612 mmHg 95%
    20:00 +9°C° 0.8 mm 1 m/S 612 mmHg 96%
    21:00 +9°C° 0.8 mm 1 m/S 612 mmHg 97%
    22:00 +8°C° 0.8 mm 1 m/S 612 mmHg 98%
    23:00 +8°C° 0.1 mm 1 m/S 612 mmHg 98%

    Morgen, 7 Juni, Sonntag

    Zeit Temperatur Niederschläge Wind Luftdruck Luftfeuchtigkeit
    00:00 +8°C° 0.1 mm 1 m/S 612 mmHg 98%
    01:00 +8°C° 0.1 mm 1 m/S 612 mmHg 98%
    02:00 +8°C° 0.1 mm 1 m/S 612 mmHg 98%
    03:00 +8°C° 0.1 mm 1 m/S 611 mmHg 98%
    04:00 +8°C° 0.1 mm 1 m/S 611 mmHg 98%
    05:00 +8°C° 0.1 mm 1 m/S 611 mmHg 97%
    06:00 +9°C° 0.1 mm 1 m/S 611 mmHg 96%
    07:00 +9°C° 0.1 mm 1 m/S 611 mmHg 95%
    08:00 +9°C° 0.5 mm 1 m/S 612 mmHg 94%
    09:00 +9°C° 0.5 mm 2 m/S 612 mmHg 93%
    10:00 +9°C° 0.5 mm 2 m/S 612 mmHg 93%
    11:00 +9°C° 1.1 mm 2 m/S 612 mmHg 93%
    12:00 +9°C° 1.1 mm 2 m/S 613 mmHg 93%
    13:00 +8°C° 1.1 mm 2 m/S 613 mmHg 94%
    14:00 +7°C° 2.6 mm 2 m/S 612 mmHg 95%
    15:00 +6°C° 2.6 mm 2 m/S 612 mmHg 97%
    16:00 +5°C° 2.6 mm 2 m/S 612 mmHg 98%
    17:00 +4°C° 2.3 mm 2 m/S 612 mmHg 98%
    18:00 +4°C° 2.3 mm 2 m/S 612 mmHg 98%
    19:00 +3°C° 2.3 mm 2 m/S 612 mmHg 97%
    20:00 +4°C° 0.8 mm 1 m/S 612 mmHg 97%
    21:00 +4°C° 0.8 mm 1 m/S 612 mmHg 97%
    22:00 +4°C° 0.8 mm 1 m/S 612 mmHg 97%
    23:00 +4°C° 0.5 mm 1 m/S 612 mmHg 97%

    übermorgen, 8 Juni, Montag

    Zeit Temperatur Niederschläge Wind Luftdruck Luftfeuchtigkeit
    00:00 +4°C° 0.5 mm 1 m/S 612 mmHg 98%
    01:00 +3°C° 0.5 mm 0 m/S 612 mmHg 98%
    02:00 +4°C° 0.2 mm 1 m/S 612 mmHg 98%
    03:00 +4°C° 0.2 mm 1 m/S 612 mmHg 98%
    04:00 +4°C° 0.2 mm 1 m/S 612 mmHg 98%
    05:00 +4°C° 0.3 mm 1 m/S 612 mmHg 98%
    06:00 +5°C° 0.3 mm 1 m/S 612 mmHg 98%
    07:00 +5°C° 0.3 mm 1 m/S 612 mmHg 97%
    08:00 +5°C° 0.1 mm 1 m/S 612 mmHg 96%
    09:00 +6°C° 0.1 mm 1 m/S 613 mmHg 95%
    10:00 +6°C° 0.1 mm 1 m/S 613 mmHg 94%
    11:00 +7°C° 0 mm 1 m/S 613 mmHg 93%
    12:00 +8°C° 0 mm 1 m/S 613 mmHg 91%
    13:00 +8°C° 0 mm 1 m/S 613 mmHg 89%
    14:00 +8°C° 0.5 mm 1 m/S 613 mmHg 90%
    15:00 +8°C° 0.5 mm 1 m/S 613 mmHg 90%
    16:00 +8°C° 0.5 mm 1 m/S 613 mmHg 91%
    17:00 +8°C° 0.4 mm 1 m/S 613 mmHg 92%
    18:00 +8°C° 0.4 mm 1 m/S 613 mmHg 94%
    19:00 +7°C° 0.4 mm 1 m/S 613 mmHg 95%
    20:00 +7°C° 0.2 mm 1 m/S 613 mmHg 96%
    21:00 +7°C° 0.2 mm 1 m/S 613 mmHg 97%
    22:00 +6°C° 0.2 mm 1 m/S 613 mmHg 98%
    23:00 +6°C° 1.3 mm 1 m/S 613 mmHg 98%

    9 Juni, Dienstag

    Zeit Temperatur Niederschläge Wind Luftdruck Luftfeuchtigkeit
    00:00 +5°C° 1.3 mm 0 m/S 613 mmHg 98%
    01:00 +5°C° 1.3 mm 0 m/S 613 mmHg 99%
    02:00 +5°C° 0.9 mm 0 m/S 613 mmHg 98%
    03:00 +5°C° 0.9 mm 0 m/S 613 mmHg 98%
    04:00 +5°C° 0.9 mm 0 m/S 613 mmHg 98%
    05:00 +5°C° 0.4 mm 0 m/S 613 mmHg 98%
    06:00 +6°C° 0.4 mm 0 m/S 613 mmHg 98%
    07:00 +6°C° 0.4 mm 0 m/S 613 mmHg 97%
    08:00 +7°C° 0.3 mm 0 m/S 614 mmHg 95%
    09:00 +7°C° 0.3 mm 0 m/S 614 mmHg 93%
    10:00 +8°C° 0.3 mm 0 m/S 615 mmHg 92%
    11:00 +9°C° 0.9 mm 1 m/S 615 mmHg 93%
    12:00 +9°C° 0.9 mm 1 m/S 615 mmHg 94%
    13:00 +9°C° 0.9 mm 1 m/S 615 mmHg 96%
    14:00 +9°C° 1.1 mm 1 m/S 615 mmHg 95%
    15:00 +9°C° 1.1 mm 1 m/S 615 mmHg 93%
    16:00 +9°C° 1.1 mm 1 m/S 615 mmHg 92%
    17:00 +9°C° 0.2 mm 1 m/S 614 mmHg 93%
    18:00 +8°C° 0.2 mm 1 m/S 614 mmHg 94%
    19:00 +8°C° 0.2 mm 1 m/S 614 mmHg 96%
    20:00 +8°C° 0 mm 1 m/S 615 mmHg 96%
    21:00 +6°C° 0 mm 0 m/S 615 mmHg 97%
    22:00 +6°C° 0 mm 0 m/S 615 mmHg 97%
    23:00 +5°C° 0 mm 0 m/S 615 mmHg 97%

    10 Juni, Mittwoch

    Zeit Temperatur Niederschläge Wind Luftdruck Luftfeuchtigkeit
    00:00 +5°C° 0 mm 0 m/S 614 mmHg 97%
    01:00 +5°C° 0 mm 0 m/S 614 mmHg 97%
    02:00 +5°C° 0 mm 0 m/S 614 mmHg 97%
    03:00 +5°C° 0 mm 0 m/S 614 mmHg 96%
    04:00 +5°C° 0 mm 0 m/S 614 mmHg 96%
    05:00 +6°C° 0 mm 0 m/S 614 mmHg 94%
    06:00 +6°C° 0 mm 0 m/S 614 mmHg 93%
    07:00 +7°C° 0 mm 0 m/S 614 mmHg 91%
    08:00 +9°C° 0.2 mm 1 m/S 615 mmHg 88%
    09:00 +10°C° 0.2 mm 1 m/S 615 mmHg 85%
    10:00 +11°C° 0.2 mm 1 m/S 615 mmHg 82%
    11:00 +11°C° 0.7 mm 1 m/S 615 mmHg 82%
    12:00 +12°C° 0.7 mm 2 m/S 615 mmHg 83%
    13:00 +12°C° 0.7 mm 2 m/S 615 mmHg 83%
    14:00 +10°C° 1.1 mm 2 m/S 615 mmHg 87%
    15:00 +10°C° 1.1 mm 1 m/S 614 mmHg 90%
    16:00 +10°C° 1.1 mm 1 m/S 614 mmHg 94%
    17:00 +9°C° 1.8 mm 1 m/S 614 mmHg 95%
    18:00 +9°C° 1.8 mm 1 m/S 613 mmHg 97%
    19:00 +8°C° 1.8 mm 1 m/S 613 mmHg 98%
    20:00 +8°C° 1.4 mm 1 m/S 613 mmHg 98%
    21:00 +7°C° 1.4 mm 1 m/S 613 mmHg 98%
    22:00 +7°C° 1.4 mm 1 m/S 613 mmHg 98%
    23:00 +7°C° 0.6 mm 1 m/S 613 mmHg 98%

    11 Juni, Donnerstag

    Zeit Temperatur Niederschläge Wind Luftdruck Luftfeuchtigkeit
    00:00 +7°C° 0.6 mm 1 m/S 613 mmHg 98%
    01:00 +7°C° 0.6 mm 1 m/S 613 mmHg 98%
    02:00 +7°C° 0.2 mm 1 m/S 613 mmHg 98%
    03:00 +7°C° 0.2 mm 1 m/S 612 mmHg 98%
    04:00 +7°C° 0.2 mm 1 m/S 612 mmHg 98%
    05:00 +7°C° 0.1 mm 1 m/S 612 mmHg 97%
    06:00 +7°C° 0.1 mm 1 m/S 613 mmHg 96%
    07:00 +7°C° 0.1 mm 1 m/S 613 mmHg 95%
    08:00 +9°C° 0.1 mm 1 m/S 613 mmHg 88%
    09:00 +10°C° 0.1 mm 1 m/S 614 mmHg 82%
    10:00 +12°C° 0.1 mm 1 m/S 614 mmHg 76%
    11:00 +12°C° 0.3 mm 1 m/S 614 mmHg 75%
    12:00 +12°C° 0.3 mm 1 m/S 614 mmHg 74%
    13:00 +13°C° 0.3 mm 2 m/S 614 mmHg 73%
    14:00 +13°C° 0.6 mm 1 m/S 614 mmHg 73%
    15:00 +13°C° 0.6 mm 1 m/S 613 mmHg 73%
    16:00 +13°C° 0.6 mm 1 m/S 613 mmHg 73%
    17:00 +12°C° 0.6 mm 1 m/S 613 mmHg 77%
    18:00 +12°C° 0.6 mm 1 m/S 613 mmHg 81%
    19:00 +11°C° 0.6 mm 1 m/S 613 mmHg 86%
    20:00 +10°C° 0.1 mm 1 m/S 612 mmHg 89%
    21:00 +8°C° 0.1 mm 1 m/S 612 mmHg 92%
    22:00 +7°C° 0.1 mm 1 m/S 611 mmHg 95%
    23:00 +7°C° 0 mm 1 m/S 611 mmHg 95%
    Mehr zeigen